[TLELIST] Archives

 

[list_settings.list_name] Current TLEs

July 20th 2022 PST

HST 1 20580U 90037B 22200.67772725 .00002603 00000-0 14245-3 0 9993 2 20580 28.4708 315.2644 0002725 28.6694 105.2744 15.10688591571091 ISS (ZARYA) 1 25544U 98067A 22201.27511535 .00008267 00000-0 15243-3 0 9997 2 25544 51.6418 172.7027 0004988 29.9133 46.9458 15.50041039350315 CXO 1 25867U 99040B 22202.42558882 .00000170 00000-0 00000-0 0 9998 2 25867 44.3902 232.3994 8856968 235.7764 0.4681 0.37807764 11933 ____________________________________________________________________ These 2-Line ...Continue Reading

[list_settings.list_name] Current TLEs

July 19th 2022 PST

HST 1 20580U 90037B 22199.74963539 .00002442 00000-0 13302-3 0 9997 2 20580 28.4709 321.4151 0002685 19.0491 97.4791 15.10683649570955 ISS (ZARYA) 1 25544U 98067A 22200.38661497 .00008570 00000-0 15780-3 0 9994 2 25544 51.6408 177.1044 0004978 27.2807 128.3689 15.50026916350172 CXO 1 25867U 99040B 22202.42558882 .00000170 00000-0 00000-0 0 9998 2 25867 44.3902 232.3994 8856968 235.7764 0.4681 0.37807764 11933 ____________________________________________________________________ These 2-Line ...Continue Reading

[list_settings.list_name] Current TLEs

July 18th 2022 PST

HST 1 20580U 90037B 22198.76403536 .00002489 00000-0 13580-3 0 9993 2 20580 28.4710 327.9467 0002628 8.7253 137.0277 15.10679229570809 ISS (ZARYA) 1 25544U 98067A 22199.35286071 .00008108 00000-0 14983-3 0 9990 2 25544 51.6409 182.2262 0005061 22.4171 121.0065 15.50007082350011 CXO 1 25867U 99040B 22202.42402457 .00000170 00000-0 00000+0 0 9993 2 25867 44.3901 232.3990 8856967 235.7767 0.2562 0.37807868 23080 ____________________________________________________________________ These 2-Line ...Continue Reading

[list_settings.list_name] Current TLEs

July 17th 2022 PST

HST 1 20580U 90037B 22198.10759856 .00002432 00000-0 13245-3 0 9996 2 20580 28.4711 332.2969 0002598 1.6933 166.9835 15.10675960570976 ISS (ZARYA) 1 25544U 98067A 22198.38636796 .00006793 00000-0 12695-3 0 9991 2 25544 51.6406 187.0142 0004895 20.3252 126.4976 15.49985486349861 CXO 1 25867U 99040B 22199.78192797 .00000222 00000-0 00000+0 0 9998 2 25867 44.4542 232.5939 8851361 235.6509 0.5809 0.37806645 23071 ____________________________________________________________________ These 2-Line ...Continue Reading

[list_settings.list_name] Current TLEs

July 16th 2022 PST

HST 1 20580U 90037B 22196.84481262 .00002406 00000-0 13097-3 0 9994 2 20580 28.4711 340.6651 0002514 348.3854 139.1004 15.10670249570513 ISS (ZARYA) 1 25544U 98067A 22197.42086477 .00005903 00000-0 11145-3 0 9991 2 25544 51.6401 191.7988 0004921 16.7236 139.0960 15.49967924349711 CXO 1 25867U 99040B 22199.78192797 .00000222 00000-0 00000+0 0 9998 2 25867 44.4542 232.5939 8851361 235.6509 0.5809 0.37806645 23071 ____________________________________________________________________ These 2-Line ...Continue Reading

[list_settings.list_name] Current TLEs

July 15th 2022 PST

HST 1 20580U 90037B 22195.85322257 .00002387 00000-0 12983-3 0 9993 2 20580 28.4712 347.2362 0002463 337.2997 146.8180 15.10665733570369 ISS (ZARYA) 1 25544U 98067A 22196.23216957 .00006685 00000-0 12520-3 0 9993 2 25544 51.6404 197.6885 0004962 13.0451 345.6422 15.49954305349525 CXO 1 25867U 99040B 22197.13697015 .00000345 00000-0 00000-0 0 9995 2 25867 44.4907 232.7420 8846423 235.5730 0.4483 0.37810073 11918 ____________________________________________________________________ These 2-Line ...Continue Reading

[list_settings.list_name] Current TLEs

July 14th 2022 PST

HST 1 20580U 90037B 22194.86127344 .00002334 00000-0 12675-3 0 9993 2 20580 28.4709 353.8096 0002428 324.8638 153.9476 15.10661567570219 ISS (ZARYA) 1 25544U 98067A 22195.42306288 .00015309 00000-0 27610-3 0 9999 2 25544 51.6409 201.6989 0005112 7.5569 153.4874 15.49950984349409 CXO 1 25867U 99040B 22197.13697015 .00000345 00000-0 00000-0 0 9995 2 25867 44.4907 232.7420 8846423 235.5730 0.4483 0.37810073 11918 ____________________________________________________________________ These 2-Line ...Continue Reading

[list_settings.list_name] Current TLEs

July 13th 2022 PST

HST 1 20580U 90037B 22193.87547346 .00002368 00000-0 12877-3 0 9992 2 20580 28.4708 0.3421 0002389 313.3161 193.7128 15.10657981570068 ISS (ZARYA) 1 25544U 98067A 22194.19072534 .00005585 00000-0 10606-3 0 9998 2 25544 51.6432 207.7970 0004806 6.0396 114.2983 15.49921513349214 CXO 1 25867U 99040B 22194.49348593 .00000394 00000-0 00000-0 0 9999 2 25867 44.5617 232.9603 8843802 235.4496 0.4756 0.37812487 11901 ____________________________________________________________________ These 2-Line ...Continue Reading

[list_settings.list_name] Current TLEs

July 12th 2022 PST

HST 1 20580U 90037B 22192.88374515 .00002086 00000-0 11218-3 0 9993 2 20580 28.4709 6.9143 0002373 302.1861 200.7647 15.10652453570185 ISS (ZARYA) 1 25544U 98067A 22193.35605603 .00005172 00000-0 98847-4 0 9990 2 25544 51.6432 211.9331 0004710 2.1441 137.9065 15.49909374349083 CXO 1 25867U 99040B 22194.49348593 .00000394 00000-0 00000-0 0 9999 2 25867 44.5617 232.9603 8843802 235.4496 0.4756 0.37812487 11901 ____________________________________________________________________ These 2-Line ...Continue Reading

[list_settings.list_name] Current TLEs

July 11th 2022 PST

HST 1 20580U 90037B 22191.81668764 .00001941 00000-0 10364-3 0 9997 2 20580 28.4709 13.9852 0002349 289.4518 158.9639 15.10648009570018 ISS (ZARYA) 1 25544U 98067A 22192.38874655 .00005872 00000-0 11117-3 0 9998 2 25544 51.6432 216.7253 0004656 359.7066 139.5295 15.49900518348939 CXO 1 25867U 99040B 22194.49223242 .00000394 00000-0 00000-0 0 9992 2 25867 44.5620 232.9606 8843796 235.4495 0.3048 0.37812587 11891 ____________________________________________________________________ These 2-Line ...Continue Reading
  • This mailing list is a public mailing list - anyone may join or leave, at any time.
  • This mailing list is announce-only.

International Space Station (ISS) / Hubble Space Telescope (HST) / Chandra X-Ray Observatory Orbital Data via EMAIL

Privacy Policy:

Private list